CEF4 Weather Reports


time (UTC)temp
F
wind
direction
speed
knots
gust
knots
rain 1hr
in
rain 24hr
in
rain mn
in
humidity
%
barometer
mb
20260503033448 56 146 7.0 11.3 5.16 0.00 0.00
20260503032148 56 141 6.1 8.7 5.16 0.00 0.00
20260503030848 57 148 6.1 7.8 5.16 0.00 0.00
20260503025548 57 131 7.0 9.6 5.16 0.00 0.00
20260503024248 58 115 7.8 11.3 5.16 0.00 0.00
20260503022948 60 108 7.8 9.6 5.16 0.00 0.00
20260503021648 62 124 7.0 9.6 5.16 0.00 0.00
20260503020348 62 124 7.0 8.7 5.16 0.00 0.00
20260503015048 65 142 4.3 5.2 5.16 0.00 0.00
20260503013748 65 149 6.1 7.8 5.16 0.00 0.00
20260503012448 65 113 7.8 11.3 5.16 0.00 0.00
20260503011148 67 160 5.2 8.7 5.16 0.00 0.00
20260503005848 66 118 6.1 9.6 5.16 0.00 0.00
20260503004548 67 162 4.3 9.6 5.16 0.00 0.00
20260503003247 66 108 5.2 8.7 5.16 0.00 0.00
20260503001947 65 122 7.0 10.4 5.16 0.00 0.00
20260503000648 67 153 4.3 8.7 5.16 0.00 0.00
20260502235347 66 115 7.0 12.2 5.16 0.00 0.00
20260502234047 67 180 5.2 8.7 5.16 0.00 0.00
20260502232747 66 153 6.1 12.2 5.16 0.00 0.00
20260502231447 67 150 6.1 11.3 5.16 0.00 0.00
20260502230148 65 128 8.7 15.6 5.16 0.00 0.00
20260502224847 65 93 4.3 10.4 5.16 0.00 0.00
20260502223547 64 121 4.3 8.7 5.16 0.00 0.00
20260502222247 64 217 6.1 10.4 5.16 0.00 0.00
20260502220947 66 153 6.1 10.4 5.16 0.00 0.00
20260502215647 64 117 6.1 11.3 5.16 0.00 0.00
20260502213047 64 89 5.2 12.2 5.16 0.00 0.00
20260502211748 64 163 5.2 9.6 5.16 0.00 0.00
20260502210447 63 113 5.2 8.7 5.16 0.00 0.00
20260502205147 63 155 4.3 7.8 5.16 0.00 0.00
20260502202547 62 203 4.3 14.8 5.16 0.00 0.00
20260502201247 62 91 5.2 9.6 5.16 0.00 0.00
20260502195947 61 158 7.0 14.8 5.16 0.00 0.00
20260502194647 61 83 2.6 7.8 5.16 0.00 0.00
20260502193347 60 156 4.3 10.4 5.16 0.00 0.00
20260502192047 60 155 6.1 11.3 5.16 0.00 0.00
20260502190747 59 107 5.2 10.4 5.16 0.00 0.00
20260502185447 60 183 1.7 7.8 5.16 0.00 0.00
20260502184147 59 94 5.2 10.4 5.16 0.00 0.00
20260502182847 58 117 5.2 12.2 5.16 0.00 0.00
20260502181547 59 158 7.0 11.3 5.16 0.00 0.00
20260502180247 59 128 6.1 10.4 5.16 0.00 0.00
20260502163147 55 58 4.3 7.0 5.16 0.00 0.00
20260502161847 54 53 3.5 5.2 5.16 0.00 0.00
20260502160547 53 68 4.3 6.1 5.16 0.00 0.00
20260502151347 51 0 0.0 0.0 5.16 0.00 0.00
20260502130347 45 307 1.7 3.5 5.16 0.00 0.00
20260502123747 45 281 3.5 4.3 5.16 0.00 0.00
20260502122447 45 276 3.5 5.2 5.16 0.00 0.00
20260502121147 45 291 2.6 4.3 5.16 0.00 0.00
20260502115847 45 305 4.3 6.1 5.16 0.00 0.00
20260502114547 45 295 3.5 5.2 5.16 0.00 0.00
20260502113247 45 295 2.6 6.1 5.16 0.00 0.00
20260502111947 46 316 5.2 7.0 5.16 0.00 0.00
20260502110647 45 291 5.2 7.0 5.16 0.00 0.00
20260502105347 45 273 2.6 3.5 5.16 0.00 0.00
20260502104047 46 288 3.5 5.2 5.16 0.00 0.00
20260502102747 46 260 3.5 6.1 5.16 0.00 0.00
20260502101447 47 295 5.2 7.8 5.16 0.00 0.00
20260502100147 48 274 3.5 5.2 5.16 0.00 0.00
20260502090946 49 280 5.2 7.8 5.16 0.00 0.00
20260502071246 48 257 5.2 5.2 5.16 0.00 0.00
20260502065946 47 252 5.2 5.2 5.16 0.00 0.00
20260502064646 48 253 5.2 6.1 5.16 0.00 0.00
20260502063346 48 249 6.1 7.8 5.16 0.00 0.00
20260502062046 48 260 5.2 6.1 5.16 0.00 0.00
20260502060746 48 240 7.0 7.8 5.16 0.00 0.00
20260502055446 48 249 4.3 6.1 5.16 0.00 0.00
20260502054146 49 278 3.5 6.1 5.16 0.00 0.00
20260502052847 49 283 3.5 6.1 5.16 0.00 0.00
20260502051546 49 314 0.0 3.5 5.16 0.00 0.00
20260502050246 49 321 0.9 3.5 5.16 0.00 0.00
20260502044946 50 285 3.5 7.8 5.16 0.00 0.00
20260502043647 50 309 1.7 6.1 5.16 0.00 0.00
20260502042346 51 14 2.6 5.2 5.16 0.00 0.00
20260502041047 52 342 2.6 6.1 5.16 0.00 0.00
20260502035746 53 352 3.5 7.8 5.16 0.00 0.00
20260502034446 53 356 6.1 13.9 5.16 0.00 0.00